Regional Weather Roundup
Issued by NWS

Home | Current Version | Previous Version | Text Only | Print | Product List | Glossary Off
Versions: 1 2 3 4 5 6 7 8 9 10 11 12 13 14 15 16 17 18 19 20 21 22 23 24 25 26 27 28 29 30 31 32 33 34 35 36 37 38 39 40 41 42 43 44 45 46 47 48 49 50

000
ASUS43 KDTX 060210
RWRMI
MICHIGAN HOURLY REGIONAL WEATHER ROUNDUP
NATIONAL WEATHER SERVICE DETROIT/PONTIAC MI
900 PM EST THU MAR 05 2015

NOTE: "FAIR" INDICATES FEW OR NO CLOUDS BELOW 12,000 FEET WITH NO
SIGNIFICANT WEATHER AND/OR OBSTRUCTION TO VISIBILITY.

MIZ047>049-052>055-059>063-066>070-074>076-081>083-060300-
SOUTHEAST LOWER MICHIGAN

CITY           SKY/WX    TMP DP  RH WIND       PRES   REMARKS
ADRIAN         CLEAR      9   0  67 W3        30.49R
ALMA           CLEAR      9   1  68 SW5       30.47R
ANN ARBOR      CLEAR      4  -3  73 W3        30.48R
BAD AXE        CLEAR      3  -5  66 SW5       30.44R
DETROIT CITY   PTCLDY    12  -2  53 CALM      30.50R
DETROIT        CLEAR     15  -2  46 CALM      30.50R
FLINT          CLEAR      5  -6  60 S5        30.46S
GROSSE ILE     CLEAR     12  -4  48 CALM      30.49R
HILLSDALE      CLEAR      9   0  68 CALM      30.45R
HOWELL         CLEAR     10  -1  63 CALM      30.45S

CITY           SKY/WX    TMP DP  RH WIND       PRES   REMARKS
JACKSON        CLEAR      9  -1  64 SW3       30.46R
LAMBERTVILLE   CLEAR     10   1  67 CALM      30.51R
LANSING        CLEAR     11   0  61 W6        30.48R
LAPEER         NOT AVBL
MASON          CLEAR      5  -2  70 CALM      30.46S
MONROE         CLEAR      7  -2  66 CALM      30.49R
MT. CLEMENS    PTCLDY    11  -2  56 S2        30.47R
PONTIAC        PTCLDY     7  -2  66 CALM      30.44S
PORT HOPE        N/A      9  -4  55 SW6       30.42S
PORT HURON     CLEAR     -2  -8  78 CALM      30.49S
TRI CITIES     CLEAR     10  -2  58 W7        30.46S
YPSILANTI      CLEAR     14  -1  51 CALM      30.49R
$$
MIZ043>046-050>051-056>058-064>065-071>073-077>080-060300-
SOUTHWEST LOWER MICHIGAN

CITY           SKY/WX    TMP DP  RH WIND       PRES   REMARKS
BATTLE CREEK   CLEAR     11   2  67 W5        30.48R
BENTON HARBOR  CLEAR     10   3  73 CALM      30.52R
BIG RAPIDS     CLEAR      4  -1  77 CALM      30.43S
COLDWATER      CLEAR      9  -1  64 CALM      30.48R
HOLLAND        CLEAR      5  -2  72 CALM      30.51R
GRAND RAPIDS   CLEAR      8   0  69 SW7       30.48R
KALAMAZOO      CLEAR     12   3  67 W5        30.49S
MARSHALL       CLEAR     10   0  64 W3        30.47R
MUSKEGON       CLOUDY    13   3  64 S3        30.50R
$$
MIZ016>042-060300-
NORTHERN LOWER MICHIGAN

CITY           SKY/WX    TMP DP  RH WIND       PRES   REMARKS
ALPENA         CLEAR     -2  -7  79 CALM      30.42S
BEAVER ISLAND  CLEAR      9   0  68 SW8       30.39S
BELLAIRE       CLEAR      6   0  75 CALM      30.44S
CADILLAC       CLOUDY     7   0  72 SW7       30.37S
CHARLEVOIX     CLEAR      6  -1  71 CALM      30.44S
FRANKFORT      CLOUDY    15   6  69 SW7       30.43S
GAYLORD        PTCLDY     4  -1  80 W9        30.35S
GRAYLING       MOCLDY     7  -2  69 W6        30.39S
HARBOR SPRINGS CLEAR      1  -3  85 CALM      30.41S
HOUGHTON LAKE  CLEAR      4  -4  69 W6        30.40R
MANISTEE       CLOUDY    12   1  62 S3        30.44F
OSCODA         CLEAR     -1  -6  79 W5        30.42R
PELLSTON       CLEAR      1  -4  79 CALM      30.41S
TRAVERSE CITY  FLURRIES   9   0  67 S3        30.43S
$$
MIZ007>008-015-060300-
EASTERN UPPER MICHIGAN

CITY           SKY/WX    TMP DP  RH WIND       PRES   REMARKS
KINROSS        CLEAR      1   0  92 S3        30.37S
MACKINAC ISLAN CLEAR      6  -1  73 SW8       30.38S
NEWBERRY       CLEAR      1  -3  84 S8        30.34S
S. S. MARIE    CLEAR      1  -5  75 S5        30.36F
$$
MIZ004>006-011>014-085-060300-
CENTRAL UPPER MICHIGAN

CITY           SKY/WX    TMP DP  RH WIND       PRES   REMARKS
MANISTIQUE     CLEAR     10   0  65 SW3       30.35F
ESCANABA       CLEAR      9  -2  61 SW6       30.37S
MENOMINEE      CLEAR     10  -8  44 SW7       30.38F
SAWYER-GWINN   CLEAR      7 -11  43 SW8       30.27F
$$
MIZ001>003-009>011-084-060300-
WESTERN UPPER MICHIGAN

CITY           SKY/WX    TMP DP  RH WIND       PRES   REMARKS
IRON MOUNTAIN  CLEAR      8 -11  41 SW6       30.29F
HOUGHTON       CLEAR      2  -9  60 W7        30.23F
COPPER HARBOR    N/A      9 -12  38 W5        30.27S
IRONWOOD       CLEAR      9 -11  40 SW12      30.25S WCI  -6
$$

ABBREVIATIONS USED IN REMARKS
   TC - TEMPERATURE IN CELSIUS
  WCI - WIND CHILL INDEX
   HX - HEAT INDEX
  VSB - VISIBILITY



USA.gov is the U.S. government's official web portal to all federal, state and local government web resources and services.